Location: Brantley
(31.5822°N, 86.2569°W)
Time: 20:50:45
(UTC+00:00)

Explorer 7 - All Passes

Search period start: 17 February 2026 00:00
Search period end: 27 February 2026 00:00
Orbit: 431 x 545 km, 50.2° (Epoch: 17 February)

Date Brightness Start Highest point End Pass type
(mag) Time Alt. Az. Time Alt. Az. Time Alt. Az.
17 Feb - 02:59:35 10° NNW 03:02:55 25° NE 03:06:18 10° E night (unlit)
17 Feb - 04:37:43 10° WNW 04:41:25 36° SW 04:45:11 10° SSE night (unlit)
17 Feb - 19:54:57 10° SW 19:58:24 78° NW 20:01:58 10° NE daylight
17 Feb - 21:36:08 10° NW 21:37:20 11° NNW 21:38:34 10° N daylight
18 Feb - 02:34:00 10° NNW 02:37:14 24° NE 02:40:34 10° E visible
18 Feb - 04:12:02 10° WNW 04:15:45 38° SW 04:19:33 10° SSE night (unlit)
18 Feb - 19:29:18 10° SW 19:32:44 83° NW 19:36:17 10° NE daylight
18 Feb - 21:10:19 10° NW 21:11:39 12° NNW 21:12:59 10° N daylight
19 Feb - 02:08:22 10° NNW 02:11:32 23° NE 02:14:46 10° E visible
19 Feb - 03:46:20 10° WNW 03:50:03 41° SW 03:53:53 10° SSE night (unlit)
19 Feb - 19:03:36 10° SW 19:07:02 89° NW 19:10:34 10° NE daylight
19 Feb - 20:44:29 10° NW 20:45:54 12° NNW 20:47:21 10° N daylight
20 Feb - 01:42:43 10° NNW 01:45:47 22° NE 01:48:56 10° E visible
20 Feb - 03:20:36 10° WNW 03:24:20 43° SW 03:28:10 10° SSE night (unlit)
20 Feb - 18:37:54 10° SW 18:41:18 86° SE 18:44:49 10° NE daylight
20 Feb - 20:18:37 10° NW 20:20:09 12° NNW 20:21:42 10° N daylight
21 Feb - 01:17:01 10° NNW 01:20:00 21° NNE 01:23:04 10° E visible
21 Feb - 02:54:50 10° WNW 02:58:34 46° SW 03:02:26 10° SSE visible
21 Feb - 18:12:08 10° SW 18:15:33 80° SE 18:19:02 10° NE daylight
21 Feb - 19:52:43 10° NW 19:54:21 13° NNW 19:55:59 10° N daylight
22 Feb - 00:51:19 10° NNW 00:54:12 20° NNE 00:57:09 10° E visible
22 Feb - 02:29:02 10° WNW 02:32:47 48° SW 02:36:39 10° SSE visible
22 Feb - 17:46:22 10° SW 17:49:45 75° SE 17:53:14 10° NE daylight
22 Feb - 19:26:47 10° WNW 19:28:31 13° NNW 19:30:15 10° N daylight
23 Feb - 00:25:34 10° NNW 00:28:21 19° NNE 00:31:12 10° E visible
23 Feb - 02:03:12 10° WNW 02:06:57 51° SW 02:10:49 10° SSE visible
23 Feb - 17:20:32 10° SW 17:23:56 69° SE 17:27:22 10° NE daylight
23 Feb - 19:00:50 10° WNW 19:02:39 14° NNW 19:04:30 10° N daylight
23 Feb - 23:59:48 10° NNW 00:02:28 18° NNE 00:05:13 10° ENE visible
24 Feb - 01:37:20 10° NW 01:41:05 55° SW 01:44:57 10° SSE visible
24 Feb - 16:54:41 10° SW 16:58:04 64° SE 17:01:30 10° NE daylight
24 Feb - 18:34:51 10° WNW 18:36:45 14° NNW 18:38:42 10° N daylight
24 Feb - 23:34:00 10° NNW 23:36:34 17° NNE 23:39:10 10° ENE daylight
25 Feb - 01:11:27 10° NW 01:15:12 58° SW 01:19:04 10° SSE visible
25 Feb - 16:28:49 10° SW 16:32:11 59° SE 16:35:35 10° NE daylight
25 Feb - 18:08:49 10° WNW 18:10:49 15° NNW 18:12:51 10° N daylight
25 Feb - 23:08:11 10° N 23:10:37 16° NNE 23:13:06 10° ENE daylight
26 Feb - 00:45:33 10° NW 00:49:16 63° SW 00:53:08 10° SE visible
26 Feb - 16:02:54 10° SSW 16:06:15 55° SE 16:09:37 10° NE daylight
26 Feb - 17:42:46 10° WNW 17:44:52 15° NNW 17:46:59 10° N daylight
26 Feb - 22:42:20 10° N 22:44:38 16° NNE 22:46:59 10° ENE daylight
